Time,TemperatureF,DewpointF,PressureIn,WindDirection,WindDirectionDegrees,WindSpeedMPH,WindSpeedGustMPH,Humidity,HourlyPrecipIn,Conditions,Clouds,dailyrainin,SoftwareType,DateUTC
2013-08-15 00:01:00,57.6,52.3,29.98,SSW,209,0.0,0.0,87,0.00,,,0.00,meteohub,2013-08-15 04:01:00,
2013-08-15 00:02:00,57.6,52.3,29.98,SSW,209,0.0,0.0,87,0.00,,,0.00,meteohub,2013-08-15 04:02:00,
2013-08-15 00:07:00,57.4,51.6,29.98,SSW,209,0.0,0.0,87,0.00,,,0.00,meteohub,2013-08-15 04:07:00,
2013-08-15 00:12:00,57.4,51.6,29.98,SSW,209,0.0,0.0,87,0.00,,,0.00,meteohub,2013-08-15 04:12:00,
2013-08-15 00:17:00,57.2,51.6,29.98,SSW,209,0.0,0.0,87,0.00,,,0.00,meteohub,2013-08-15 04:17:00,
2013-08-15 00:22:00,57.2,52.3,29.98,SSW,209,0.0,0.0,87,0.00,,,0.00,meteohub,2013-08-15 04:22:00,
2013-08-15 00:27:00,57.2,52.2,29.98,SSW,209,0.0,0.0,87,0.00,,,0.00,meteohub,2013-08-15 04:27:00,
2013-08-15 00:32:00,57.2,52.2,29.98,SSW,209,0.0,0.0,87,0.00,,,0.00,meteohub,2013-08-15 04:32:00,
2013-08-15 00:37:00,57.4,52.2,29.99,SSW,209,0.0,1.0,87,0.00,,,0.00,meteohub,2013-08-15 04:37:00,
2013-08-15 00:42:00,57.6,52.2,29.99,SSW,209,0.0,1.0,87,0.00,,,0.00,meteohub,2013-08-15 04:42:00,
2013-08-15 00:47:00,57.6,52.2,29.99,SSW,209,0.0,1.0,86,0.00,,,0.00,meteohub,2013-08-15 04:47:00,
2013-08-15 00:52:00,57.6,52.2,29.99,SSW,209,0.0,0.0,87,0.00,,,0.00,meteohub,2013-08-15 04:52:00,
2013-08-15 00:57:00,57.6,52.2,29.99,SSW,209,0.0,1.0,86,0.00,,,0.00,meteohub,2013-08-15 04:57:00,
2013-08-15 01:02:00,57.6,52.2,29.99,SSW,209,0.0,1.0,86,0.00,,,0.00,meteohub,2013-08-15 05:02:00,
2013-08-15 01:07:00,57.4,52.2,29.99,SSW,209,0.0,1.0,86,0.00,,,0.00,meteohub,2013-08-15 05:07:00,
2013-08-15 01:12:00,57.4,52.2,29.99,SSW,209,0.0,0.0,86,0.00,,,0.00,meteohub,2013-08-15 05:12:00,
2013-08-15 01:17:00,57.0,52.2,29.99,SSW,209,0.0,1.0,86,0.00,,,0.00,meteohub,2013-08-15 05:17:00,
2013-08-15 01:22:00,57.0,52.2,29.99,SSW,209,0.0,1.0,87,0.00,,,0.00,meteohub,2013-08-15 05:22:00,
2013-08-15 01:27:00,56.8,52.2,29.99,SSW,209,0.0,0.0,87,0.00,,,0.00,meteohub,2013-08-15 05:27:00,
2013-08-15 01:32:00,56.7,52.2,29.99,SSW,209,0.0,0.0,87,0.00,,,0.00,meteohub,2013-08-15 05:32:00,
2013-08-15 01:37:00,56.7,52.2,29.99,SSW,209,0.0,0.0,87,0.00,,,0.00,meteohub,2013-08-15 05:37:00,
2013-08-15 01:42:00,56.5,52.2,29.99,SSW,209,0.0,0.0,88,0.00,,,0.00,meteohub,2013-08-15 05:42:00,
2013-08-15 01:48:00,56.1,52.2,29.99,SSW,209,0.0,0.0,88,0.00,,,0.00,meteohub,2013-08-15 05:48:00,
2013-08-15 01:53:00,55.9,52.2,29.99,SSW,209,0.0,0.0,89,0.00,,,0.00,meteohub,2013-08-15 05:53:00,
2013-08-15 01:58:00,55.8,52.0,29.99,SSW,209,0.0,0.0,89,0.00,,,0.00,meteohub,2013-08-15 05:58:00,
2013-08-15 02:03:00,55.4,52.0,29.99,SSW,209,0.0,0.0,89,0.00,,,0.00,meteohub,2013-08-15 06:03:00,
2013-08-15 02:08:00,55.2,52.0,29.99,SSW,209,0.0,0.0,90,0.00,,,0.00,meteohub,2013-08-15 06:08:00,
2013-08-15 02:13:00,55.0,52.0,29.99,SSW,209,0.0,0.0,90,0.00,,,0.00,meteohub,2013-08-15 06:13:00,
2013-08-15 02:18:00,55.0,52.0,29.99,SSW,209,0.0,0.0,91,0.00,,,0.00,meteohub,2013-08-15 06:18:00,
2013-08-15 02:23:00,54.9,52.0,29.99,SSW,209,0.0,0.0,91,0.00,,,0.00,meteohub,2013-08-15 06:23:00,
2013-08-15 02:28:00,54.7,52.0,30.00,SSW,209,0.0,0.0,91,0.00,,,0.00,meteohub,2013-08-15 06:28:00,
2013-08-15 02:33:00,54.3,52.0,30.00,SSW,209,0.0,0.0,92,0.00,,,0.00,meteohub,2013-08-15 06:33:00,
2013-08-15 02:38:00,54.1,52.0,30.00,SSW,209,0.0,0.0,92,0.00,,,0.00,meteohub,2013-08-15 06:38:00,
2013-08-15 02:43:00,54.0,52.0,30.00,SSW,209,0.0,0.0,92,0.00,,,0.00,meteohub,2013-08-15 06:43:00,
2013-08-15 02:48:00,53.8,51.8,30.00,SSW,209,0.0,0.0,92,0.00,,,0.00,meteohub,2013-08-15 06:48:00,
2013-08-15 02:53:00,53.8,51.8,30.00,SSW,209,0.0,0.0,93,0.00,,,0.00,meteohub,2013-08-15 06:53:00,
2013-08-15 02:58:00,53.6,51.8,30.00,SSW,209,0.0,0.0,93,0.00,,,0.00,meteohub,2013-08-15 06:58:00,
2013-08-15 03:03:00,53.6,51.8,30.00,SSW,209,0.0,0.0,93,0.00,,,0.00,meteohub,2013-08-15 07:03:00,
2013-08-15 03:08:00,53.6,51.8,30.01,SSW,209,0.0,0.0,93,0.00,,,0.00,meteohub,2013-08-15 07:08:00,
2013-08-15 03:13:00,53.6,51.8,30.01,SSW,209,0.0,0.0,93,0.00,,,0.00,meteohub,2013-08-15 07:13:00,
2013-08-15 03:18:00,53.6,51.8,30.01,SSW,209,0.0,0.0,93,0.00,,,0.00,meteohub,2013-08-15 07:18:00,
2013-08-15 03:23:00,53.6,51.8,30.01,SSW,209,0.0,0.0,93,0.00,,,0.00,meteohub,2013-08-15 07:23:00,
2013-08-15 03:28:00,53.6,51.8,30.01,SSW,209,0.0,1.0,93,0.00,,,0.00,meteohub,2013-08-15 07:28:00,
2013-08-15 03:33:00,53.6,51.6,30.01,SSW,209,0.0,1.0,93,0.00,,,0.00,meteohub,2013-08-15 07:33:00,
2013-08-15 03:38:00,53.6,51.6,30.01,SSW,209,0.0,1.0,93,0.00,,,0.00,meteohub,2013-08-15 07:38:00,
2013-08-15 03:43:00,53.4,51.6,30.01,SSW,209,0.0,0.0,93,0.00,,,0.00,meteohub,2013-08-15 07:43:00,
2013-08-15 03:48:00,53.4,51.6,30.01,SSW,209,0.0,0.0,93,0.00,,,0.00,meteohub,2013-08-15 07:48:00,
2013-08-15 03:53:00,53.4,51.6,30.01,SSW,209,0.0,0.0,93,0.00,,,0.00,meteohub,2013-08-15 07:53:00,
2013-08-15 03:58:00,53.4,51.6,30.02,SSW,209,0.0,0.0,93,0.00,,,0.00,meteohub,2013-08-15 07:58:00,
2013-08-15 04:03:00,53.4,51.6,30.02,SSW,209,0.0,0.0,93,0.00,,,0.00,meteohub,2013-08-15 08:03:00,
2013-08-15 04:08:00,53.4,51.6,30.02,SSW,209,0.0,0.0,93,0.00,,,0.00,meteohub,2013-08-15 08:08:00,
2013-08-15 04:13:00,53.4,51.6,30.02,SSW,209,0.0,0.0,93,0.00,,,0.00,meteohub,2013-08-15 08:13:00,
2013-08-15 04:18:00,53.2,51.6,30.02,SSW,209,0.0,0.0,93,0.00,,,0.00,meteohub,2013-08-15 08:18:00,
2013-08-15 04:23:00,53.1,51.6,30.02,SSW,209,0.0,0.0,93,0.00,,,0.00,meteohub,2013-08-15 08:23:00,
2013-08-15 04:28:00,52.9,51.6,30.02,SSW,209,0.0,0.0,93,0.00,,,0.00,meteohub,2013-08-15 08:28:00,
2013-08-15 04:33:00,52.9,51.4,30.03,SSW,209,0.0,0.0,93,0.00,,,0.00,meteohub,2013-08-15 08:33:00,
2013-08-15 04:38:00,52.7,51.4,30.03,SSW,209,0.0,0.0,93,0.00,,,0.00,meteohub,2013-08-15 08:38:00,
2013-08-15 04:43:00,52.7,51.4,30.03,SSW,209,0.0,0.0,93,0.00,,,0.00,meteohub,2013-08-15 08:43:00,
2013-08-15 04:48:00,52.5,51.4,30.03,SSW,209,0.0,0.0,93,0.00,,,0.00,meteohub,2013-08-15 08:48:00,
2013-08-15 04:54:00,52.5,51.4,30.03,SSW,209,0.0,0.0,93,0.00,,,0.00,meteohub,2013-08-15 08:54:00,
2013-08-15 04:59:00,52.5,51.4,30.04,SSW,209,0.0,0.0,93,0.00,,,0.00,meteohub,2013-08-15 08:59:00,
2013-08-15 05:04:00,52.5,51.4,30.04,SSW,209,0.0,0.0,93,0.00,,,0.00,meteohub,2013-08-15 09:04:00,
2013-08-15 05:09:00,52.5,51.4,30.04,SSW,209,0.0,0.0,94,0.00,,,0.00,meteohub,2013-08-15 09:09:00,
2013-08-15 05:14:00,52.5,51.3,30.04,SSW,209,0.0,0.0,94,0.00,,,0.00,meteohub,2013-08-15 09:14:00,
2013-08-15 05:19:00,52.5,51.3,30.04,SSW,209,0.0,0.0,94,0.00,,,0.00,meteohub,2013-08-15 09:19:00,
2013-08-15 05:24:00,52.5,51.3,30.04,SSW,209,0.0,0.0,94,0.00,,,0.00,meteohub,2013-08-15 09:24:00,
2013-08-15 05:29:00,52.5,51.3,30.04,SSW,209,0.0,0.0,94,0.00,,,0.00,meteohub,2013-08-15 09:29:00,
2013-08-15 05:34:00,52.5,51.3,30.04,SSW,209,0.0,0.0,94,0.00,,,0.00,meteohub,2013-08-15 09:34:00,
2013-08-15 05:39:00,52.5,51.3,30.04,SSW,209,0.0,0.0,94,0.00,,,0.00,meteohub,2013-08-15 09:39:00,
2013-08-15 05:44:00,52.3,51.3,30.04,SSW,209,0.0,0.0,93,0.00,,,0.00,meteohub,2013-08-15 09:44:00,
2013-08-15 05:49:00,52.2,51.3,30.05,SSW,209,0.0,0.0,94,0.00,,,0.00,meteohub,2013-08-15 09:49:00,
2013-08-15 05:54:00,52.0,51.3,30.05,SSW,209,0.0,0.0,93,0.00,,,0.00,meteohub,2013-08-15 09:54:00,
2013-08-15 05:59:00,52.0,51.1,30.05,SSW,209,0.0,0.0,94,0.00,,,0.00,meteohub,2013-08-15 09:59:00,
2013-08-15 06:04:00,51.8,51.1,30.05,SSW,209,0.0,0.0,94,0.00,,,0.00,meteohub,2013-08-15 10:04:00,
2013-08-15 06:09:00,51.6,51.1,30.06,SSW,209,0.0,0.0,94,0.00,,,0.00,meteohub,2013-08-15 10:09:00,
2013-08-15 06:14:00,51.6,51.1,30.06,SSW,209,0.0,0.0,94,0.00,,,0.00,meteohub,2013-08-15 10:14:00,
2013-08-15 06:19:00,51.6,51.1,30.06,SSW,209,0.0,0.0,94,0.00,,,0.00,meteohub,2013-08-15 10:19:00,
2013-08-15 06:24:00,51.8,51.1,30.06,SSW,209,0.0,0.0,95,0.00,,,0.00,meteohub,2013-08-15 10:24:00,
2013-08-15 06:29:00,51.8,51.1,30.06,SSW,209,0.0,0.0,95,0.00,,,0.00,meteohub,2013-08-15 10:29:00,
2013-08-15 06:34:00,52.0,51.1,30.06,SSW,209,0.0,0.0,95,0.00,,,0.00,meteohub,2013-08-15 10:34:00,
2013-08-15 06:39:00,52.2,51.1,30.06,SSW,209,0.0,0.0,95,0.00,,,0.00,meteohub,2013-08-15 10:39:00,
2013-08-15 06:44:00,52.3,50.9,30.07,SSW,209,0.0,0.0,95,0.00,,,0.00,meteohub,2013-08-15 10:44:00,
2013-08-15 06:49:00,52.3,50.9,30.07,SSW,209,0.0,0.0,95,0.00,,,0.00,meteohub,2013-08-15 10:49:00,
2013-08-15 06:54:00,52.5,50.9,30.07,SSW,209,0.0,0.0,95,0.00,,,0.00,meteohub,2013-08-15 10:54:00,
2013-08-15 06:59:00,52.9,50.9,30.07,SSW,209,0.0,0.0,95,0.00,,,0.00,meteohub,2013-08-15 10:59:00,
2013-08-15 07:04:00,53.2,50.9,30.07,SSW,209,0.0,0.0,95,0.00,,,0.00,meteohub,2013-08-15 11:04:00,
2013-08-15 07:09:00,53.4,50.9,30.08,SSW,209,0.0,0.0,95,0.00,,,0.00,meteohub,2013-08-15 11:09:00,
2013-08-15 07:14:00,54.0,50.9,30.07,SSW,209,0.0,0.0,95,0.00,,,0.00,meteohub,2013-08-15 11:14:00,
2013-08-15 07:19:00,54.1,50.9,30.07,SSW,209,0.0,0.0,95,0.00,,,0.00,meteohub,2013-08-15 11:19:00,
2013-08-15 07:24:00,54.5,50.9,30.08,SSW,209,0.0,0.0,95,0.00,,,0.00,meteohub,2013-08-15 11:24:00,
2013-08-15 07:29:00,54.9,50.9,30.08,SSW,209,0.0,0.0,95,0.00,,,0.00,meteohub,2013-08-15 11:29:00,
2013-08-15 07:34:00,55.2,50.9,30.08,SSW,209,0.0,0.0,94,0.00,,,0.00,meteohub,2013-08-15 11:34:00,
2013-08-15 07:39:00,55.8,50.9,30.08,SSW,209,0.0,0.0,94,0.00,,,0.00,meteohub,2013-08-15 11:39:00,
2013-08-15 07:44:00,55.9,50.9,30.08,SSW,209,0.0,0.0,93,0.00,,,0.00,meteohub,2013-08-15 11:44:00,
2013-08-15 07:49:00,56.5,50.9,30.08,SSW,209,0.0,0.0,93,0.00,,,0.00,meteohub,2013-08-15 11:49:00,
2013-08-15 07:55:00,57.0,50.9,30.08,SSW,209,0.0,0.0,92,0.00,,,0.00,meteohub,2013-08-15 11:55:00,
2013-08-15 07:59:00,57.6,50.9,30.08,SSW,209,0.0,0.0,91,0.00,,,0.00,meteohub,2013-08-15 11:59:00,
2013-08-15 08:05:00,57.9,50.9,30.08,SSW,209,0.0,1.0,89,0.00,,,0.00,meteohub,2013-08-15 12:05:00,
2013-08-15 08:10:00,58.6,50.9,30.08,SSW,209,0.0,1.0,88,0.00,,,0.00,meteohub,2013-08-15 12:10:00,
2013-08-15 08:15:00,59.0,51.1,30.08,SSW,209,0.0,1.0,87,0.00,,,0.00,meteohub,2013-08-15 12:15:00,
2013-08-15 08:20:00,59.5,51.1,30.07,SSW,209,0.0,1.0,86,0.00,,,0.00,meteohub,2013-08-15 12:20:00,
2013-08-15 08:25:00,60.3,51.1,30.08,WNW,292,0.0,1.0,85,0.00,,,0.00,meteohub,2013-08-15 12:25:00,
2013-08-15 08:30:00,60.8,51.1,30.08,WNW,294,1.0,1.0,83,0.00,,,0.00,meteohub,2013-08-15 12:30:00,
2013-08-15 08:35:00,61.3,51.1,30.08,WNW,294,0.0,4.0,81,0.00,,,0.00,meteohub,2013-08-15 12:35:00,
2013-08-15 08:40:00,61.9,51.1,30.08,WNW,294,0.0,4.0,80,0.00,,,0.00,meteohub,2013-08-15 12:40:00,
2013-08-15 08:45:00,62.2,51.1,30.08,WSW,246,5.0,5.0,80,0.00,,,0.00,meteohub,2013-08-15 12:45:00,
2013-08-15 08:50:00,63.0,51.1,30.08,SW,236,0.0,5.0,78,0.00,,,0.00,meteohub,2013-08-15 12:50:00,
2013-08-15 08:55:00,63.3,51.1,30.08,SW,236,0.0,5.0,78,0.00,,,0.00,meteohub,2013-08-15 12:55:00,
2013-08-15 09:00:00,63.7,51.1,30.08,SW,236,0.0,2.0,78,0.00,,,0.00,meteohub,2013-08-15 13:00:00,
2013-08-15 09:05:00,64.2,51.1,30.08,WSW,255,0.0,2.0,76,0.00,,,0.00,meteohub,2013-08-15 13:05:00,
2013-08-15 09:10:00,65.1,51.1,30.08,WSW,254,0.0,2.0,76,0.00,,,0.00,meteohub,2013-08-15 13:10:00,
2013-08-15 09:15:00,65.8,51.1,30.08,WSW,255,0.0,2.0,74,0.00,,,0.00,meteohub,2013-08-15 13:15:00,
2013-08-15 09:20:00,66.4,51.1,30.08,WSW,254,0.0,2.0,73,0.00,,,0.00,meteohub,2013-08-15 13:20:00,
2013-08-15 09:25:00,66.9,51.1,30.08,WSW,255,0.0,2.0,70,0.00,,,0.00,meteohub,2013-08-15 13:25:00,
2013-08-15 09:30:00,67.5,51.1,30.08,WNW,284,1.0,2.0,69,0.00,,,0.00,meteohub,2013-08-15 13:30:00,
2013-08-15 09:35:00,67.6,51.1,30.08,NW,312,0.0,4.0,67,0.00,,,0.00,meteohub,2013-08-15 13:35:00,
2013-08-15 09:40:00,67.8,51.1,30.08,NW,313,0.0,4.0,66,0.00,,,0.00,meteohub,2013-08-15 13:40:00,
2013-08-15 09:45:00,68.4,51.1,30.08,SSE,148,0.0,4.0,64,0.00,,,0.00,meteohub,2013-08-15 13:45:00,
2013-08-15 09:50:00,68.9,51.3,30.08,SSE,148,0.0,2.0,64,0.00,,,0.00,meteohub,2013-08-15 13:50:00,
2013-08-15 09:55:00,69.4,51.3,30.08,SSE,150,0.0,2.0,62,0.00,,,0.00,meteohub,2013-08-15 13:55:00,
2013-08-15 10:00:00,70.0,51.3,30.08,SSE,150,0.0,2.0,62,0.00,,,0.00,meteohub,2013-08-15 14:00:00,
2013-08-15 10:05:00,70.3,51.3,30.08,SSE,149,1.0,2.0,61,0.00,,,0.00,meteohub,2013-08-15 14:05:00,
2013-08-15 10:10:00,70.5,51.3,30.08,NNW,338,0.0,2.0,60,0.00,,,0.00,meteohub,2013-08-15 14:10:00,
2013-08-15 10:14:00,70.5,51.3,30.08,North,355,0.0,2.0,61,0.00,,,0.00,meteohub,2013-08-15 14:14:00,
2013-08-15 10:17:00,70.7,51.3,30.08,North,355,0.0,2.0,60,0.00,,,0.00,meteohub,2013-08-15 14:17:00,
2013-08-15 10:22:00,71.1,51.3,30.08,NW,304,0.0,2.0,60,0.00,,,0.00,meteohub,2013-08-15 14:22:00,
2013-08-15 10:27:00,71.2,51.3,30.08,North,350,0.0,2.0,58,0.00,,,0.00,meteohub,2013-08-15 14:27:00,
2013-08-15 10:32:00,71.4,51.4,30.08,West,279,2.0,4.0,60,0.00,,,0.00,meteohub,2013-08-15 14:32:00,
2013-08-15 10:37:00,71.8,51.4,30.08,West,272,6.0,6.0,60,0.00,,,0.00,meteohub,2013-08-15 14:37:00,
2013-08-15 10:42:00,71.8,51.4,30.08,West,266,0.0,6.0,59,0.00,,,0.00,meteohub,2013-08-15 14:42:00,
2013-08-15 10:47:00,72.0,51.4,30.08,West,266,0.0,6.0,61,0.00,,,0.00,meteohub,2013-08-15 14:47:00,
2013-08-15 10:52:00,72.1,51.4,30.08,NNE,12,2.0,6.0,59,0.00,,,0.00,meteohub,2013-08-15 14:52:00,
2013-08-15 10:57:00,72.3,51.4,30.08,SSE,155,0.0,2.0,55,0.00,,,0.00,meteohub,2013-08-15 14:57:00,
2013-08-15 11:02:00,72.1,51.4,30.08,SE,140,3.0,4.0,54,0.00,,,0.00,meteohub,2013-08-15 15:02:00,
2013-08-15 11:07:00,71.8,51.6,30.08,SW,234,0.0,6.0,59,0.00,,,0.00,meteohub,2013-08-15 15:07:00,
2013-08-15 11:12:00,72.1,51.6,30.08,ENE,66,0.0,6.0,58,0.00,,,0.00,meteohub,2013-08-15 15:12:00,
2013-08-15 11:17:00,72.3,51.6,30.08,WSW,240,0.0,6.0,54,0.00,,,0.00,meteohub,2013-08-15 15:17:00,
2013-08-15 11:22:00,72.9,51.6,30.08,NE,54,0.0,2.0,58,0.00,,,0.00,meteohub,2013-08-15 15:22:00,
2013-08-15 11:27:00,73.6,51.6,30.08,NNW,344,1.0,2.0,57,0.00,,,0.00,meteohub,2013-08-15 15:27:00,
2013-08-15 11:32:00,73.8,51.6,30.08,SSW,199,0.0,5.0,56,0.00,,,0.00,meteohub,2013-08-15 15:32:00,
2013-08-15 11:37:00,74.1,51.6,30.08,SSE,161,0.0,6.0,53,0.00,,,0.00,meteohub,2013-08-15 15:37:00,
2013-08-15 11:42:00,73.4,51.6,30.08,SSE,155,1.0,6.0,53,0.00,,,0.00,meteohub,2013-08-15 15:42:00,
2013-08-15 11:47:00,73.0,52.5,30.07,SSE,155,0.0,4.0,53,0.00,,,0.00,meteohub,2013-08-15 15:47:00,
2013-08-15 11:53:00,72.7,52.5,30.08,SSE,154,0.0,3.0,56,0.00,,,0.00,meteohub,2013-08-15 15:53:00,
2013-08-15 11:58:00,72.9,52.5,30.07,NNW,340,0.0,3.0,54,0.00,,,0.00,meteohub,2013-08-15 15:58:00,
2013-08-15 12:03:00,73.6,52.5,30.07,WNW,287,0.0,2.0,52,0.00,,,0.00,meteohub,2013-08-15 16:03:00,
2013-08-15 12:08:00,73.8,52.5,30.07,WNW,290,0.0,3.0,56,0.00,,,0.00,meteohub,2013-08-15 16:08:00,
2013-08-15 12:13:00,74.1,52.5,30.07,SSE,159,1.0,4.0,53,0.00,,,0.00,meteohub,2013-08-15 16:13:00,
2013-08-15 12:18:00,73.6,52.5,30.06,SSE,159,0.0,4.0,53,0.00,,,0.00,meteohub,2013-08-15 16:18:00,
2013-08-15 12:23:00,72.9,52.5,30.07,NW,321,0.0,4.0,52,0.00,,,0.00,meteohub,2013-08-15 16:23:00,
2013-08-15 12:28:00,73.0,52.5,30.07,NW,321,0.0,4.0,53,0.00,,,0.00,meteohub,2013-08-15 16:28:00,
2013-08-15 12:33:00,73.6,52.5,30.06,SW,229,0.0,4.0,54,0.00,,,0.00,meteohub,2013-08-15 16:33:00,
2013-08-15 12:38:00,73.9,52.5,30.06,NW,315,1.0,5.0,50,0.00,,,0.00,meteohub,2013-08-15 16:38:00,
2013-08-15 12:43:00,73.6,52.5,30.06,NW,316,2.0,5.0,52,0.00,,,0.00,meteohub,2013-08-15 16:43:00,
2013-08-15 12:48:00,73.2,52.5,30.06,South,182,2.0,5.0,57,0.00,,,0.00,meteohub,2013-08-15 16:48:00,
2013-08-15 12:53:00,73.2,52.7,30.06,SW,221,1.0,4.0,52,0.00,,,0.00,meteohub,2013-08-15 16:53:00,
2013-08-15 12:59:00,72.9,52.7,30.06,SW,233,0.0,2.0,54,0.00,,,0.00,meteohub,2013-08-15 16:59:00,
2013-08-15 13:04:00,72.9,52.7,30.06,WNW,287,0.0,2.0,53,0.00,,,0.00,meteohub,2013-08-15 17:04:00,
2013-08-15 13:09:00,73.6,52.7,30.06,WNW,288,0.0,2.0,54,0.00,,,0.00,meteohub,2013-08-15 17:09:00,
2013-08-15 13:14:00,74.5,52.7,30.06,SE,142,0.0,2.0,55,0.00,,,0.00,meteohub,2013-08-15 17:14:00,
2013-08-15 13:19:00,74.5,52.7,30.06,NW,310,2.0,3.0,50,0.00,,,0.00,meteohub,2013-08-15 17:19:00,
2013-08-15 13:24:00,74.1,52.2,30.06,SE,136,2.0,5.0,50,0.00,,,0.00,meteohub,2013-08-15 17:24:00,
2013-08-15 13:29:00,74.7,52.2,30.05,NNE,13,0.0,5.0,51,0.00,,,0.00,meteohub,2013-08-15 17:29:00,
2013-08-15 13:34:00,74.7,52.2,30.05,SSE,161,0.0,5.0,48,0.00,,,0.00,meteohub,2013-08-15 17:34:00,
2013-08-15 13:39:00,74.8,52.2,30.05,SSE,161,0.0,5.0,52,0.00,,,0.00,meteohub,2013-08-15 17:39:00,
2013-08-15 13:44:00,75.0,52.2,30.05,ESE,114,0.0,4.0,50,0.00,,,0.00,meteohub,2013-08-15 17:44:00,
2013-08-15 13:49:00,75.7,52.2,30.05,NW,309,0.0,5.0,48,0.00,,,0.00,meteohub,2013-08-15 17:49:00,
2013-08-15 13:54:00,75.9,53.1,30.05,West,277,4.0,5.0,49,0.00,,,0.00,meteohub,2013-08-15 17:54:00,
2013-08-15 13:59:00,76.3,52.3,30.05,NW,313,1.0,5.0,51,0.00,,,0.00,meteohub,2013-08-15 17:59:00,
2013-08-15 14:04:00,76.3,52.3,30.05,NNW,344,1.0,6.0,49,0.00,,,0.00,meteohub,2013-08-15 18:04:00,
2013-08-15 14:09:00,76.5,52.3,30.05,NW,316,3.0,6.0,50,0.00,,,0.00,meteohub,2013-08-15 18:09:00,
2013-08-15 14:14:00,76.3,52.5,30.04,NW,305,0.0,6.0,50,0.00,,,0.00,meteohub,2013-08-15 18:14:00,
2013-08-15 14:19:00,76.3,52.5,30.05,NW,305,0.0,6.0,52,0.00,,,0.00,meteohub,2013-08-15 18:19:00,
2013-08-15 14:25:00,75.7,52.5,30.05,WSW,256,1.0,6.0,50,0.00,,,0.00,meteohub,2013-08-15 18:25:00,
2013-08-15 14:30:00,74.8,52.5,30.05,NW,321,0.0,6.0,54,0.00,,,0.00,meteohub,2013-08-15 18:30:00,
2013-08-15 14:35:00,75.0,52.5,30.04,NNW,333,2.0,4.0,54,0.00,,,0.00,meteohub,2013-08-15 18:35:00,
2013-08-15 14:40:00,75.4,52.5,30.04,WNW,300,0.0,5.0,54,0.00,,,0.00,meteohub,2013-08-15 18:40:00,
2013-08-15 14:45:00,75.7,52.7,30.04,NNW,338,1.0,6.0,54,0.00,,,0.00,meteohub,2013-08-15 18:45:00,
2013-08-15 14:50:00,75.7,52.7,30.04,NNW,328,3.0,6.0,54,0.00,,,0.00,meteohub,2013-08-15 18:50:00,
2013-08-15 14:56:00,75.7,52.7,30.04,WNW,301,0.0,6.0,55,0.00,,,0.00,meteohub,2013-08-15 18:56:00,
2013-08-15 15:01:00,75.7,52.7,30.04,WNW,302,1.0,6.0,52,0.00,,,0.00,meteohub,2013-08-15 19:01:00,
2013-08-15 15:06:00,75.9,52.7,30.04,NNE,25,0.0,6.0,54,0.00,,,0.00,meteohub,2013-08-15 19:06:00,
2013-08-15 15:11:00,75.6,52.7,30.04,WSW,250,0.0,6.0,51,0.00,,,0.00,meteohub,2013-08-15 19:11:00,
2013-08-15 15:16:00,74.8,52.9,30.04,NW,313,0.0,6.0,52,0.00,,,0.00,meteohub,2013-08-15 19:16:00,
2013-08-15 15:21:00,74.7,52.2,30.04,NW,310,2.0,5.0,54,0.00,,,0.00,meteohub,2013-08-15 19:21:00,
2013-08-15 15:26:00,74.8,52.2,30.03,SSW,194,0.0,5.0,52,0.00,,,0.00,meteohub,2013-08-15 19:26:00,
2013-08-15 15:31:00,75.4,52.2,30.03,North,5,0.0,5.0,51,0.00,,,0.00,meteohub,2013-08-15 19:31:00,
2013-08-15 15:37:00,75.9,52.2,30.03,NNW,342,4.0,5.0,55,0.00,,,0.00,meteohub,2013-08-15 19:37:00,
2013-08-15 15:42:00,76.3,52.2,30.03,NW,313,1.0,7.0,53,0.00,,,0.00,meteohub,2013-08-15 19:42:00,
2013-08-15 15:47:00,75.7,52.2,30.03,NW,317,0.0,7.0,53,0.00,,,0.00,meteohub,2013-08-15 19:47:00,
2013-08-15 15:52:00,75.4,52.2,30.03,NW,317,1.0,7.0,52,0.00,,,0.00,meteohub,2013-08-15 19:52:00,
2013-08-15 15:57:00,75.2,52.2,30.03,West,268,0.0,5.0,52,0.00,,,0.00,meteohub,2013-08-15 19:57:00,
2013-08-15 16:02:00,75.7,52.2,30.03,NW,304,2.0,5.0,52,0.00,,,0.00,meteohub,2013-08-15 20:02:00,
2013-08-15 16:08:00,76.5,52.2,30.03,North,0,2.0,5.0,52,0.00,,,0.00,meteohub,2013-08-15 20:08:00,
2013-08-15 16:13:00,76.3,52.2,30.03,NW,311,0.0,5.0,51,0.00,,,0.00,meteohub,2013-08-15 20:13:00,
2013-08-15 16:18:00,75.9,52.2,30.03,NW,313,3.0,4.0,53,0.00,,,0.00,meteohub,2013-08-15 20:18:00,
2013-08-15 16:23:00,75.9,52.2,30.03,NW,313,0.0,4.0,51,0.00,,,0.00,meteohub,2013-08-15 20:23:00,
2013-08-15 16:29:00,76.1,52.2,30.03,WSW,251,1.0,4.0,52,0.00,,,0.00,meteohub,2013-08-15 20:29:00,
2013-08-15 16:34:00,75.7,52.2,30.03,WSW,249,0.0,4.0,53,0.00,,,0.00,meteohub,2013-08-15 20:34:00,
2013-08-15 16:39:00,74.7,52.2,30.03,WSW,240,0.0,2.0,55,0.00,,,0.00,meteohub,2013-08-15 20:39:00,
2013-08-15 16:44:00,74.1,52.2,30.03,WSW,240,0.0,2.0,57,0.00,,,0.00,meteohub,2013-08-15 20:44:00,
2013-08-15 16:49:00,74.1,52.2,30.03,WSW,240,1.0,1.0,55,0.00,,,0.00,meteohub,2013-08-15 20:49:00,
2013-08-15 16:54:00,74.8,52.2,30.03,NW,319,0.0,4.0,54,0.00,,,0.00,meteohub,2013-08-15 20:54:00,
2013-08-15 16:59:00,75.2,52.2,30.03,NNW,331,1.0,5.0,54,0.00,,,0.00,meteohub,2013-08-15 20:59:00,
2013-08-15 17:04:00,75.6,52.2,30.03,North,5,4.0,5.0,52,0.00,,,0.00,meteohub,2013-08-15 21:04:00,
2013-08-15 17:10:00,75.4,52.2,30.03,WNW,302,0.0,5.0,53,0.00,,,0.00,meteohub,2013-08-15 21:10:00,
2013-08-15 17:16:00,74.8,52.2,30.03,WNW,302,0.0,5.0,54,0.00,,,0.00,meteohub,2013-08-15 21:16:00,
2013-08-15 17:21:00,74.7,52.2,30.03,SE,140,0.0,3.0,54,0.00,,,0.00,meteohub,2013-08-15 21:21:00,
2013-08-15 17:26:00,74.5,52.2,30.03,South,175,0.0,5.0,53,0.00,,,0.00,meteohub,2013-08-15 21:26:00,
2013-08-15 17:31:00,74.3,52.2,30.03,WSW,238,0.0,5.0,53,0.00,,,0.00,meteohub,2013-08-15 21:31:00,
2013-08-15 17:36:00,74.5,52.2,30.04,West,276,0.0,5.0,53,0.00,,,0.00,meteohub,2013-08-15 21:36:00,
2013-08-15 17:41:00,74.5,52.2,30.04,SW,234,0.0,4.0,52,0.00,,,0.00,meteohub,2013-08-15 21:41:00,
2013-08-15 17:46:00,74.1,52.2,30.03,SW,233,0.0,4.0,54,0.00,,,0.00,meteohub,2013-08-15 21:46:00,
2013-08-15 17:51:00,73.8,52.3,30.03,NW,323,1.0,4.0,53,0.00,,,0.00,meteohub,2013-08-15 21:51:00,
2013-08-15 17:56:00,73.2,52.3,30.03,NW,323,0.0,1.0,55,0.00,,,0.00,meteohub,2013-08-15 21:56:00,
2013-08-15 18:01:00,72.9,52.2,30.03,NW,323,0.0,1.0,56,0.00,,,0.00,meteohub,2013-08-15 22:01:00,
2013-08-15 18:07:00,72.3,52.3,30.04,NW,322,0.0,1.0,59,0.00,,,0.00,meteohub,2013-08-15 22:07:00,
2013-08-15 18:12:00,72.1,52.3,30.04,NW,322,0.0,0.0,58,0.00,,,0.00,meteohub,2013-08-15 22:12:00,
2013-08-15 18:17:00,72.1,52.3,30.04,NW,323,0.0,1.0,59,0.00,,,0.00,meteohub,2013-08-15 22:17:00,
2013-08-15 18:22:00,72.3,52.2,30.04,NW,322,0.0,1.0,59,0.00,,,0.00,meteohub,2013-08-15 22:22:00,
2013-08-15 18:27:00,72.7,52.3,30.04,NW,323,0.0,1.0,57,0.00,,,0.00,meteohub,2013-08-15 22:27:00,
2013-08-15 18:32:00,72.7,52.3,30.04,NW,323,0.0,1.0,57,0.00,,,0.00,meteohub,2013-08-15 22:32:00,
2013-08-15 18:37:00,72.7,52.3,30.04,NW,322,0.0,1.0,57,0.00,,,0.00,meteohub,2013-08-15 22:37:00,
2013-08-15 18:42:00,72.5,52.3,30.04,NW,322,0.0,1.0,59,0.00,,,0.00,meteohub,2013-08-15 22:42:00,
2013-08-15 18:47:00,72.3,52.3,30.04,NW,323,0.0,1.0,58,0.00,,,0.00,meteohub,2013-08-15 22:47:00,
2013-08-15 18:52:00,72.1,52.5,30.04,NW,323,0.0,1.0,60,0.00,,,0.00,meteohub,2013-08-15 22:52:00,
2013-08-15 18:57:00,72.0,52.5,30.04,NW,323,0.0,0.0,59,0.00,,,0.00,meteohub,2013-08-15 22:57:00,
2013-08-15 19:02:00,71.8,52.5,30.04,NW,323,0.0,0.0,60,0.00,,,0.00,meteohub,2013-08-15 23:02:00,
2013-08-15 19:07:00,71.2,52.5,30.04,NW,323,0.0,0.0,62,0.00,,,0.00,meteohub,2013-08-15 23:07:00,
2013-08-15 19:12:00,71.1,52.5,30.05,NW,323,0.0,0.0,62,0.00,,,0.00,meteohub,2013-08-15 23:12:00,
2013-08-15 19:17:00,70.5,52.5,30.05,NW,323,0.0,0.0,62,0.00,,,0.00,meteohub,2013-08-15 23:17:00,
2013-08-15 19:22:00,70.2,52.5,30.05,NW,322,0.0,1.0,62,0.00,,,0.00,meteohub,2013-08-15 23:22:00,
2013-08-15 19:27:00,70.0,52.5,30.06,NW,323,0.0,1.0,64,0.00,,,0.00,meteohub,2013-08-15 23:27:00,
2013-08-15 19:32:00,69.4,52.5,30.06,NW,322,0.0,1.0,63,0.00,,,0.00,meteohub,2013-08-15 23:32:00,
2013-08-15 19:37:00,69.3,52.5,30.06,NW,322,0.0,0.0,64,0.00,,,0.00,meteohub,2013-08-15 23:37:00,
2013-08-15 19:42:00,68.9,52.5,30.06,NW,323,0.0,0.0,64,0.00,,,0.00,meteohub,2013-08-15 23:42:00,
2013-08-15 19:47:00,68.5,53.1,30.06,NW,323,0.0,0.0,65,0.00,,,0.00,meteohub,2013-08-15 23:47:00,
2013-08-15 19:52:00,68.2,53.2,30.06,NW,323,0.0,0.0,65,0.00,,,0.00,meteohub,2013-08-15 23:52:00,
2013-08-15 19:57:00,67.6,53.2,30.06,NW,322,0.0,0.0,67,0.00,,,0.00,meteohub,2013-08-15 23:57:00,
2013-08-15 20:02:00,67.3,52.3,30.07,NW,323,0.0,0.0,69,0.00,,,0.00,meteohub,2013-08-16 00:02:00,
2013-08-15 20:07:00,66.4,52.3,30.07,NW,322,0.0,0.0,69,0.00,,,0.00,meteohub,2013-08-16 00:07:00,
2013-08-15 20:12:00,65.8,52.3,30.07,NW,323,0.0,0.0,70,0.00,,,0.00,meteohub,2013-08-16 00:12:00,
2013-08-15 20:17:00,65.5,52.3,30.08,NW,322,0.0,0.0,72,0.00,,,0.00,meteohub,2013-08-16 00:17:00,
2013-08-15 20:23:00,64.9,52.3,30.08,NW,323,0.0,0.0,72,0.00,,,0.00,meteohub,2013-08-16 00:23:00,
2013-08-15 20:28:00,64.8,52.3,30.08,NW,323,0.0,0.0,73,0.00,,,0.00,meteohub,2013-08-16 00:28:00,
2013-08-15 20:33:00,64.4,52.3,30.08,NW,323,0.0,0.0,74,0.00,,,0.00,meteohub,2013-08-16 00:33:00,
2013-08-15 20:38:00,64.0,52.3,30.08,NW,323,0.0,0.0,75,0.00,,,0.00,meteohub,2013-08-16 00:38:00,
2013-08-15 20:43:00,63.9,52.3,30.08,NW,323,0.0,0.0,76,0.00,,,0.00,meteohub,2013-08-16 00:43:00,
2013-08-15 20:48:00,63.7,52.3,30.09,NW,323,0.0,0.0,76,0.00,,,0.00,meteohub,2013-08-16 00:48:00,
2013-08-15 20:53:00,63.5,52.3,30.09,NW,323,0.0,0.0,76,0.00,,,0.00,meteohub,2013-08-16 00:53:00,
2013-08-15 20:58:00,63.3,53.2,30.09,NW,322,0.0,0.0,76,0.00,,,0.00,meteohub,2013-08-16 00:58:00,
2013-08-15 21:03:00,63.3,52.5,30.09,NW,322,0.0,0.0,77,0.00,,,0.00,meteohub,2013-08-16 01:03:00,
2013-08-15 21:08:00,63.1,52.3,30.10,NW,323,0.0,0.0,78,0.00,,,0.00,meteohub,2013-08-16 01:08:00,
2013-08-15 21:13:00,63.0,52.3,30.10,NW,323,0.0,0.0,77,0.00,,,0.00,meteohub,2013-08-16 01:13:00,
2013-08-15 21:18:00,62.8,52.3,30.10,NW,322,0.0,0.0,78,0.00,,,0.00,meteohub,2013-08-16 01:18:00,
2013-08-15 21:23:00,62.6,52.3,30.10,NW,322,0.0,0.0,79,0.00,,,0.00,meteohub,2013-08-16 01:23:00,
2013-08-15 21:29:00,62.4,52.3,30.10,NW,323,0.0,0.0,79,0.00,,,0.00,meteohub,2013-08-16 01:29:00,
2013-08-15 21:36:00,61.9,52.3,30.11,NW,323,0.0,0.0,80,0.00,,,0.00,meteohub,2013-08-16 01:36:00,
2013-08-15 21:41:00,61.5,52.3,30.11,NW,322,0.0,0.0,81,0.00,,,0.00,meteohub,2013-08-16 01:41:00,
2013-08-15 21:47:00,61.3,52.3,30.11,NW,322,0.0,0.0,82,0.00,,,0.00,meteohub,2013-08-16 01:47:00,
2013-08-15 21:52:00,61.2,52.3,30.11,NW,323,0.0,0.0,83,0.00,,,0.00,meteohub,2013-08-16 01:52:00,
2013-08-15 21:57:00,61.2,52.2,30.11,NW,323,0.0,0.0,83,0.00,,,0.00,meteohub,2013-08-16 01:57:00,
2013-08-15 22:02:00,61.0,52.2,30.11,NW,322,0.0,0.0,83,0.00,,,0.00,meteohub,2013-08-16 02:02:00,
2013-08-15 22:07:00,60.6,52.2,30.11,NW,322,0.0,0.0,84,0.00,,,0.00,meteohub,2013-08-16 02:07:00,
2013-08-15 22:12:00,60.4,52.2,30.11,NW,323,0.0,0.0,84,0.00,,,0.00,meteohub,2013-08-16 02:12:00,
2013-08-15 22:17:00,60.3,52.2,30.12,NW,323,0.0,0.0,85,0.00,,,0.00,meteohub,2013-08-16 02:17:00,
2013-08-15 22:22:00,60.3,52.0,30.12,NW,322,0.0,0.0,86,0.00,,,0.00,meteohub,2013-08-16 02:22:00,
2013-08-15 22:27:00,60.3,52.0,30.12,NW,323,0.0,0.0,86,0.00,,,0.00,meteohub,2013-08-16 02:27:00,
2013-08-15 22:32:00,60.3,52.0,30.12,NW,323,0.0,0.0,86,0.00,,,0.00,meteohub,2013-08-16 02:32:00,
2013-08-15 22:37:00,60.4,52.0,30.12,NW,323,0.0,0.0,86,0.00,,,0.00,meteohub,2013-08-16 02:37:00,
2013-08-15 22:42:00,60.6,52.0,30.12,NW,322,0.0,0.0,85,0.00,,,0.00,meteohub,2013-08-16 02:42:00,
2013-08-15 22:47:00,60.8,52.0,30.11,NW,323,0.0,0.0,85,0.00,,,0.00,meteohub,2013-08-16 02:47:00,
2013-08-15 22:52:00,60.8,51.8,30.12,NW,323,0.0,0.0,84,0.00,,,0.00,meteohub,2013-08-16 02:52:00,
2013-08-15 22:57:00,60.6,51.8,30.11,NW,322,0.0,0.0,85,0.00,,,0.00,meteohub,2013-08-16 02:57:00,
2013-08-15 23:02:00,60.3,51.8,30.11,NW,323,0.0,0.0,85,0.00,,,0.00,meteohub,2013-08-16 03:02:00,
2013-08-15 23:07:00,59.9,51.8,30.11,NW,323,0.0,0.0,86,0.00,,,0.00,meteohub,2013-08-16 03:07:00,
2013-08-15 23:12:00,59.5,51.8,30.11,NW,322,0.0,0.0,86,0.00,,,0.00,meteohub,2013-08-16 03:12:00,
2013-08-15 23:17:00,59.2,51.8,30.11,NW,323,0.0,0.0,87,0.00,,,0.00,meteohub,2013-08-16 03:17:00,
2013-08-15 23:22:00,59.0,51.8,30.11,NW,323,0.0,0.0,87,0.00,,,0.00,meteohub,2013-08-16 03:22:00,
2013-08-15 23:27:00,59.0,51.8,30.11,NW,323,0.0,0.0,88,0.00,,,0.00,meteohub,2013-08-16 03:27:00,
2013-08-15 23:32:00,58.6,51.8,30.11,NW,323,0.0,0.0,88,0.00,,,0.00,meteohub,2013-08-16 03:32:00,
2013-08-15 23:37:00,58.5,51.8,30.11,NW,322,0.0,0.0,89,0.00,,,0.00,meteohub,2013-08-16 03:37:00,
2013-08-15 23:42:00,58.3,51.8,30.11,NW,323,0.0,0.0,89,0.00,,,0.00,meteohub,2013-08-16 03:42:00,
2013-08-15 23:47:00,58.1,51.8,30.12,NW,322,0.0,0.0,89,0.00,,,0.00,meteohub,2013-08-16 03:47:00,
2013-08-15 23:52:00,57.9,51.6,30.12,NW,323,0.0,0.0,90,0.00,,,0.00,meteohub,2013-08-16 03:52:00,
2013-08-15 23:57:00,57.9,51.6,30.12,NW,322,0.0,0.0,90,0.00,,,0.00,meteohub,2013-08-16 03:57:00,